Location: *
(46.7001°S, 179.5669°W)
Time: 18:39:13
(UTC+00:00)

Daily predictions for brighter satellites

Satellite Brightness Start Highest point End
(mag) Time Altitude Azimuth Time Altitude Azimuth Time Altitude Azimuth
MOS 1 Rocket 4.2 12:04:13 10° S 12:09:23 48° WSW 12:11:42 29° NW
Cosmos 1340 3.8 12:10:21 28° W 12:10:59 30° WSW 12:14:15 10° S
BREEZE-M DEB (TANK) 4.2 12:11:07 10° W 12:14:44 68° S 12:27:16 10° E
Cosmos 1975 Rocket 3.1 12:10:24 10° S 12:14:51 76° E 12:16:04 47° NNE
Cosmos 332 Rocket 4.4 12:13:51 36° NE 12:15:04 43° ENE 12:19:40 10° SE
ALOS 2 2.7 12:12:54 10° SSE 12:17:22 65° E 12:18:28 47° NNE
Cosmos 2084 3.9 12:18:23 44° NNE 12:19:04 48° ENE 12:23:38 10° SE
Cosmos 1825 2.0 12:16:26 10° S 12:20:04 72° E 12:20:28 64° NE
ARIANE 5 R/B 3.9 12:18:39 10° S 12:22:37 33° WSW 12:24:23 24° WNW
Meteor 2-10 Rocket 4.5 12:21:31 27° NW 12:24:21 47° WSW 12:30:02 10° S
CZ-2D R/B 2.7 12:22:49 24° NE 12:26:05 57° ESE 12:31:31 10° S
Cosmos 1025 Rocket 3.4 12:22:50 10° SSW 12:27:09 51° W 12:28:02 43° NW
Cosmos 1315 Rocket 3.4 12:26:32 10° SSW 12:30:26 43° W 12:30:57 41° WNW
Cosmos 1633 3.6 12:27:52 10° SSW 12:30:01 27° WSW 12:30:01 27° WSW
Cosmos 1538 Rocket 4.1 12:25:55 10° SSW 12:31:21 70° WNW 12:33:19 39° N
Cosmos 371 Rocket 3.7 12:29:29 34° NW 12:31:25 58° WSW 12:36:18 10° SSE
MSX 4.2 12:30:51 23° NE 12:34:27 62° ESE 12:40:11 10° S
SAR-Lupe-1 4.2 12:36:20 53° NE 12:37:05 73° ESE 12:40:45 10° S
Helios 1A Rocket 3.9 12:34:30 10° SSE 12:38:09 34° E 12:39:07 30° NE
SL-27 R/B 3.7 12:38:32 26° E 12:38:32 26° E 12:41:08 10° SE
IDEFIX/ARIANE 42P 2.7 12:35:56 29° NNE 12:38:41 72° ESE 12:44:01 10° S
Okean 2 Rocket 4.1 12:39:07 28° NE 12:40:46 38° E 12:44:54 10° SSE
ADEOS II 2.8 12:39:03 19° NE 12:42:40 50° ESE 12:47:49 10° S
Cosmos 990 Rocket 4.1 12:40:55 36° NW 12:43:05 71° WSW 12:48:25 10° SSE
Cosmos 2082 Rocket 4.4 12:39:26 10° W 12:43:40 21° SW 12:47:57 10° S
Cosmos 1300 Rocket 3.9 12:42:59 41° NW 12:44:17 58° WSW 12:48:44 10° S
Meteor 1-4 Rocket 2.1 12:42:05 10° SSW 12:45:21 86° W 12:45:27 83° NNW
Cosmos 2219 Rocket 2.6 12:43:05 10° SSW 12:48:43 62° ESE 12:53:31 14° NE
Cosmos 2360 Rocket 2.2 12:43:14 10° SSW 12:48:55 71° WNW 12:51:36 32° N
Cosmos 921 Rocket 3.9 12:47:30 10° S 12:51:34 43° ESE 12:54:19 18° NE
Cosmos 1727 Rocket 4.0 12:51:05 32° N 12:54:14 88° E 13:00:38 10° S
SL-8 R/B 3.8 12:49:39 11° W 12:54:16 81° SSW 12:59:10 10° ESE
In-Cosmos 22 Rocket 4.2 12:49:15 10° SSW 12:55:08 88° W 12:58:03 31° N
Cosmos 1605 Rocket 4.4 12:49:19 10° SSW 12:55:12 47° W 12:57:53 30° NW
Cosmos 2173 Rocket 4.2 12:50:23 10° S 12:56:33 68° E 13:00:35 22° NNE
Cosmos 1892 3.8 12:55:47 10° SSW 12:58:55 27° W 12:59:05 27° W
ARGOS Delta rocket 4.5 12:57:18 10° S 13:01:30 41° WSW 13:03:09 29° WNW
Cosmos 372 Rocket 4.0 12:59:42 35° N 13:01:48 68° ENE 13:06:56 10° SSE
ALOS 4.0 12:58:31 10° NE 13:02:33 29° ESE 13:06:37 10° S
AQUA 4.2 13:00:17 23° NNE 13:03:14 63° ESE 13:08:01 10° S
Cosmos 1455 2.6 13:02:52 41° WNW 13:03:32 46° WSW 13:07:06 10° S
Cosmos 1441 Rocket 3.6 13:04:48 38° NNE 13:05:56 55° E 13:09:43 10° SSE
ATLAS 5 CENTAUR R/B 3.0 13:05:11 10° SW 13:11:07 48° SE 13:15:52 10° ENE
Cosmos 1937 Rocket 3.4 13:10:03 34° NNW 13:12:21 81° ENE 13:17:36 10° SSE
Cosmos 2322 Rocket 2.9 13:07:24 10° SW 13:12:29 35° WNW 13:14:09 29° NW
Cosmos 292 Rocket 4.5 13:11:41 27° NNE 13:13:54 45° ENE 13:18:33 10° SSE
GENESIS II 4.3 13:10:35 10° SSW 13:14:14 66° SE 13:17:03 16° NE
ISS -2.0 13:12:23 10° WSW 13:15:36 36° S 13:18:48 10° ESE
Cosmos 1898 Rocket 3.6 13:15:10 31° NW 13:17:45 70° WSW 13:23:08 10° SSE
USA 308 3.3 13:16:29 10° SW 13:18:40 34° SSE 13:21:12 10° E
Resurs 1-4 Rocket 2.4 13:17:55 31° NNW 13:20:10 51° W 13:25:22 10° SSW
Cosmos 2151 Rocket 3.6 13:19:37 35° NNW 13:21:31 80° W 13:26:10 10° S
BREEZE M DEB (TANK) 2.8 13:20:27 15° WSW 13:22:03 45° S 13:24:47 10° E
Cosmos 2100 Rocket 4.0 13:17:55 10° SSW 13:24:09 74° W 13:28:01 25° N
FENGYUN 3A 3.8 13:20:28 17° NNE 13:24:39 75° ESE 13:30:07 10° S
Cosmos 923 Rocket 4.2 13:20:33 10° SSW 13:25:42 54° WNW 13:28:13 29° N
USA 229 DEB 4.4 13:21:54 10° WSW 13:27:12 27° WNW 13:28:43 24° NW
USA 229 4.4 13:21:56 10° WSW 13:27:15 27° WNW 13:28:49 24° NW
USA 215 3.2 13:22:38 10° NE 13:29:13 76° NW 13:35:53 10° SW
Thor Agena Rocket 4.5 13:26:25 10° NE 13:31:24 49° ESE 13:36:29 10° S
Cosmos 2297 Rocket 3.9 13:30:36 11° NNE 13:34:46 25° ENE 13:39:19 10° SE
CZ-2C R/B 4.3 13:30:45 10° ENE 13:35:04 29° ESE 13:39:19 10° S
NPP 4.4 13:34:37 26° NW 13:36:48 35° W 13:41:49 10° SSW
Cosmos 1725 Rocket 4.1 13:30:23 10° S 13:36:50 83° E 13:42:07 16° N
Cosmos 1459 Rocket 4.1 13:31:29 10° SSW 13:37:52 65° W 13:42:00 23° N
Cosmos 1802 Rocket 4.0 13:31:58 10° S 13:38:23 81° W 13:42:59 20° N
Cosmos 1680 Rocket 3.7 13:33:41 10° SSW 13:38:57 56° WNW 13:42:04 24° N
SL-16 R/B 4.0 13:38:42 10° WSW 13:41:22 13° W 13:42:21 13° WNW
NOSS 0 Rocket 4.4 13:39:23 10° SSW 13:45:36 64° ESE 13:51:47 10° NE
COSMOS 2428 2.7 13:42:24 10° SSW 13:48:10 89° WNW 13:53:53 10° NNE
Cosmos 2333 Rocket 3.1 13:43:58 10° SW 13:48:53 30° WNW 13:51:07 23° NW
Cosmos 1461 3.2 13:46:02 10° SSW 13:50:17 72° SE 13:54:39 10° NE
SL-08 R/B 4.5 13:44:15 10° S 13:50:31 89° W 13:56:02 14° N
Cosmos 2112 Rocket 4.4 13:49:22 10° SSW 13:54:34 48° WNW 13:57:58 20° N
BREEZE-M DEB (TANK) 4.2 13:56:54 10° NE 13:56:54 10° NE 13:56:58 10° NE
IRS-1D 4.4 13:53:42 10° NE 13:58:54 54° ESE 14:04:11 10° S
Cosmos 1242 Rocket 3.0 13:58:42 10° SSW 14:01:47 37° W 14:02:45 29° NW
Cosmos 2237 Rocket 3.1 13:56:26 10° SSW 14:02:03 51° ESE 14:07:38 10° NE
CZ-2D R/B 3.5 14:04:07 18° NW 14:06:26 23° W 14:10:48 10° SW
Cosmos 2061 Rocket 4.0 14:02:21 10° SSW 14:08:38 74° W 14:14:24 12° N
FAST Rocket 4.3 14:05:44 10° S 14:09:00 68° E 14:10:54 17° NNE
METEOR-M 4.5 14:04:00 10° NNE 14:09:20 68° ESE 14:14:45 10° S
Okean 1 Rocket 3.7 14:08:32 22° NW 14:11:06 43° WSW 14:15:25 10° S
SL-27 R/B 4.3 14:10:52 13° W 14:12:20 17° WSW 14:14:33 10° SSW
Cosmos 1892 Rocket 3.5 14:09:56 10° SSW 14:14:27 80° W 14:18:30 13° N
Cosmos 2322 4.1 14:12:02 10° SW 14:17:30 44° WNW 14:22:35 12° N
USA 32 4.1 14:14:04 14° N 14:18:35 88° E 14:23:56 10° S
IDEFIX/ARIANE 42P 4.3 14:16:42 14° WNW 14:18:46 17° W 14:22:12 10° SW
USA 305 4.4 14:18:34 10° SSW 14:19:35 13° SSE 14:20:35 10° SE
CZ-2C R/B 3.5 14:15:03 13° N 14:20:11 59° W 14:26:02 10° SSW
ADEOS II 3.3 14:19:56 17° NW 14:22:34 25° W 14:26:54 10° SW
PAYLOAD A 4.2 14:18:26 10° NNE 14:23:06 66° ESE 14:27:54 10° S
USA 307 4.2 14:22:56 10° SW 14:24:43 20° SSE 14:26:28 10° ESE
USA 281 4.1 14:18:42 10° NE 14:25:04 54° ESE 14:31:30 10° SSW
Cosmos 2084 Rocket 4.0 14:23:52 10° SW 14:28:39 71° SE 14:33:24 10° NE
Cosmos 1125 Rocket 4.0 14:24:44 12° N 14:29:35 57° ENE 14:34:47 10° SSE
Cosmos 1346 Rocket 3.7 14:28:37 18° NW 14:31:01 34° WSW 14:34:41 10° S
Cosmos 2227 Rocket 3.3 14:26:05 10° N 14:31:16 38° ENE 14:36:31 10° SE
Cosmos 2360 Rocket 4.2 14:30:44 10° W 14:31:49 11° W 14:32:54 10° WNW
Cosmos 2219 Rocket 3.4 14:27:55 10° SW 14:32:10 22° W 14:35:09 15° NW
YAOGAN 6 3.2 14:32:05 10° NNE 14:35:22 54° ESE 14:38:46 10° S
BREEZE-M DEB (TANK) 1.9 14:33:07 10° WSW 14:35:56 54° NNW 14:38:16 10° NE
SL-8 R/B 3.9 14:32:05 10° WSW 14:36:58 76° S 14:41:50 10° E
Cosmos 494 Rocket 4.2 14:34:33 10° SSW 14:39:39 51° WNW 14:44:38 10° N
ALOS 3.0 14:36:10 14° NNW 14:39:42 35° W 14:44:03 10° SSW
Cosmos 2233 Rocket 4.3 14:34:06 10° SSW 14:40:15 51° W 14:46:17 10° NNW
Envisat 3.0 14:35:20 10° NNE 14:40:27 85° WNW 14:45:39 10° SSW
USA 306 3.3 14:40:23 10° SW 14:43:54 55° SSE 14:47:40 10° ENE
MOZ.5/SAFIR/RUBIN 5/SL-8 3.8 14:39:28 10° S 14:44:11 69° WSW 14:48:31 12° NNW
USA 276 2.8 14:44:05 16° NNW 14:46:12 39° NNE 14:49:08 10° ESE
Cosmos 1455 Rocket 3.7 14:46:16 13° NW 14:49:48 41° WSW 14:54:00 10° S
USA 308 2.6 14:50:08 10° WSW 14:52:29 29° NW 14:55:10 10° NNE
ISS -3.7 14:49:12 10° WSW 14:52:38 84° SSE 14:56:03 10° ENE
NOAA 11 4.2 14:47:29 10° NNE 14:53:01 85° WNW 14:58:39 10° SSW
ATLAS 5 CENTAUR R/B 2.6 14:50:07 10° SW 14:55:03 32° WNW 14:59:08 10° N
SL-16 R/B 3.7 14:52:29 10° SSE 14:58:23 42° E 15:04:13 10° NNE
Cosmos 2285 Rocket 4.1 14:53:53 10° SSW 15:00:17 88° WNW 15:06:38 10° NNE
Cosmos 1484 Rocket 3.8 14:57:38 10° NNE 15:01:10 47° ESE 15:04:45 10° S
SL-16 R/B 3.4 14:55:50 10° SSW 15:01:23 48° ESE 15:06:54 10° NE
Cosmos 1758 Rocket 4.0 14:57:37 10° S 15:02:09 70° E 15:06:34 10° NNE
Okean 1-7 Rocket 3.8 14:59:06 10° S 15:03:43 82° E 15:08:13 10° N
Cosmos 1464 Rocket 4.1 15:00:14 10° S 15:06:31 87° E 15:12:40 10° N
COBE Rocket 4.4 15:02:30 10° NNW 15:06:53 39° W 15:11:24 10° SSW
USA 215 4.3 15:07:58 10° N 15:12:56 23° NW 15:17:57 10° WSW
CZ-2C R/B 3.0 15:08:15 10° NNW 15:13:03 41° W 15:17:47 10° SSW
Cosmos 2297 Rocket 2.5 15:12:48 10° NW 15:18:25 57° WSW 15:24:04 10° SSE
Cosmos 2150 Rocket 4.2 15:14:17 10° NNW 15:19:46 86° WSW 15:25:14 10° SSE
Cosmos 1980 4.2 15:16:27 10° SW 15:21:45 40° WNW 15:26:59 10° N
